Chino, CA

5:34 AM PDT on March 28, 2017 (GMT -0700)
Chino

Weather History for KCNO - December, 2011

Change the Weather History Date:

Saturday, December 24, 2011

  Actual Average Record
Temperature  
Mean Temperature 52 °F -  
Max Temperature 73 °F 65 °F 84 °F (2005)
Min Temperature 32 °F 36 °F 23 °F (1998)
Degree Days  
Heating Degree Days 12    
Growing Degree Days 2 (Base 50)    
Moisture  
Dew Point 18 °F    
Average Humidity 33    
Maximum Humidity 73    
Minimum Humidity 9    
Precipitation  
Precipitation 0.00 in - - ()
Sea Level Pressure  
Sea Level Pressure 30.35 in    
Wind  
Wind Speed 3 mph (NNW)    
Max Wind Speed 16 mph    
Max Gust Speed -    
Visibility 10 miles    
Events      
Averages and records for this station are not official NWS values.
T = Trace of Precipitation, MM = Missing Value Source: NWS Daily Summary

Daily Weather History Graph

Daily Weather History Graph

Search for Another Location

Airport or City:

Trip Planner

Search our weather history database for the weather conditions in past years. The results will help you decide how hot, cold, wet, or windy it might be!

Date:

Astronomy

Dec. 24, 2011 Rise Set
Actual Time 6:53 AM PST 4:46 PM PST
Civil Twilight 6:25 AM PST 5:14 PM PST
Nautical Twilight 5:54 AM PST 5:46 PM PST
Astronomical Twilight 5:23 AM PST 6:16 PM PST
Moon 6:45 AM PST (12/24) 5:04 PM PST (12/24)
Length of Visible Light 10h 49m
Length of Day
9h 53m
New Moon, 0% of the Moon is Illuminated
Dec 24
New Moon
Dec 31
First Quarter
Jan 8
Full
Jan 16
Last Quarter
Jan 22
New

Hourly Weather History & Observations

Time (PST) Temp. Windchill Dew Point Humidity Pressure Visibility Wind Dir Wind Speed Gust Speed Precip Events Conditions
12:53 AM 37.9 °F - 25.0 °F 60% 30.37 in 10.0 mi Calm Calm - N/A   Clear
1:53 AM 37.0 °F - 28.0 °F 70% 30.36 in 8.0 mi Calm Calm - N/A   Clear
2:53 AM 39.0 °F - 23.0 °F 53% 30.37 in 10.0 mi Calm Calm - N/A   Clear
3:53 AM 35.1 °F 32.2 °F 25.0 °F 67% 30.37 in 10.0 mi NW 3.5 mph - N/A   Clear
4:53 AM 36.0 °F 31.1 °F 23.0 °F 59% 30.37 in 10.0 mi North 5.8 mph - N/A   Clear
5:53 AM 32.0 °F 27.5 °F 24.1 °F 73% 30.38 in 10.0 mi North 4.6 mph - N/A   Clear
6:53 AM 34.0 °F - 21.9 °F 61% 30.39 in 10.0 mi Calm Calm - N/A   Clear
7:53 AM 37.0 °F - 26.1 °F 65% 30.38 in 10.0 mi Calm Calm - N/A   Clear
8:53 AM 54.0 °F - 23.0 °F 30% 30.39 in 10.0 mi West 3.5 mph - N/A   Clear
9:53 AM 66.0 °F - 12.0 °F 12% 30.38 in 10.0 mi Variable 3.5 mph - N/A   Clear
10:53 AM 68.0 °F - 19.9 °F 16% 30.36 in 10.0 mi North 9.2 mph - N/A   Clear
11:53 AM 72.0 °F - 12.0 °F 10% 30.31 in 10.0 mi NW 5.8 mph - N/A   Clear
12:53 PM 73.0 °F - 10.0 °F 9% 30.30 in 10.0 mi NW 4.6 mph - N/A   Clear
1:53 PM 73.0 °F - 14.0 °F 11% 30.29 in 10.0 mi NW 4.6 mph - N/A   Clear
2:53 PM 72.0 °F - 17.1 °F 12% 30.28 in 10.0 mi WNW 5.8 mph - N/A   Clear
4:53 PM 64.0 °F - 21.0 °F 19% 30.31 in 10.0 mi NE 3.5 mph - N/A   Clear
5:53 PM 57.9 °F - 19.9 °F 23% 30.32 in 10.0 mi West 4.6 mph - N/A   Clear
6:53 PM 54.0 °F - 21.9 °F 29% 30.34 in 10.0 mi Variable 5.8 mph - N/A   Clear
7:53 PM 64.9 °F - 7.0 °F 10% 30.34 in 10.0 mi Variable 6.9 mph - N/A   Clear
8:53 PM 66.0 °F - 7.0 °F 10% 30.35 in 10.0 mi East 10.4 mph - N/A   Clear
9:53 PM 64.9 °F - 7.0 °F 10% 30.33 in 10.0 mi East 16.1 mph - N/A   Clear
10:53 PM 55.9 °F - 14.0 °F 19% 30.34 in 10.0 mi NNE 4.6 mph - N/A   Clear
11:53 PM 46.9 °F - 19.9 °F 34% 30.35 in 9.0 mi Calm Calm - N/A   Clear